Tracking 29892 objects as of 21-Nov-2024
HD Live streaming from Space Station
objects crossing your sky now

STARLINK-5059

Track STARLINK-5059 now!
10-day predictions
STARLINK-5059 is classified as:


NORAD ID: 53912
Int'l Code: 2022-119AC
Perigee: 545.7 km
Apogee: 548.0 km
Inclination: 53.2 °
Period: 95.4 minutes
Semi major axis: 6917 km
RCS: Unknown
Launch date: September 24, 2022
Source: United States (US)
Launch site: AIR FORCE EASTERN TEST RANGE (AFETR)
Your satellite tracking list
Your tracking list is empty




NASA's NSSDC Master Catalog

Two Line Element Set (TLE):
1 53912U 22119AC  24325.89803144  .00000367  00000-0  41163-4 0  9993
2 53912  53.2181 280.6866 0001673 106.6737 253.4439 15.08838052119882
Source of the keplerian elements: AFSPC